SCP
0 0 0 0 0 0 0 0 0 0 0 0 0 0 0 0 0 0 0 0 0 0 0 0 0 0 0 0 1 1 1 1 1 1 1 1 1 1
0 0 0 0 0 0 0 0 0 0 0 0 0 0 0 0 0 0 0 0 0 0 0 0 0 0 0 0 0 1 1 1 1 1 1 1 1 1
0 0 0 0 0 0 0 0 0 0 0 0 0 0 0 0 0 0 0 0 0 0 0 0 0 0 0 0 0 0 0 0 1 1 1 1 1 1
0 0 0 0 0 0 0 0 0 0 0 0 0 0 0 0 0 0 0 0 0 0 0 0 0 0 0 0 0 0 0 0 0 0 0 0 1 1
0 0 0 0 0 0 0 0 0 0 0 0 0 0 0 0 0 0 0 0 0 0 0 0 0 0 0 0 0 0 0 0 0 0 0 0 0 0
0 0 0 0 0 0 0 0 0 0 0 0 0 0 0 0 0 0 0 0 0 0 0 0 0 0 0 0 0 0 0 0 0 0 0 0 0 0
0 0 0 0 0 0 0 0 0 0 0 0 0 0 0 0 0 0 0 0 0 0 0 0 0 0 0 0 0 0 0 0 0 0 0 0 0 0
0 0 0 0 0 0 0 0 0 0 0 0 0 0 0 0 0 0 0 0 0 0 0 0 0 0 0 0 0 0 0 0 0 0 0 0 0 0
0 0 0 0 0 0 0 0 0 0 0 0 0 0 0 0 0 0 0 0 0 0 0 0 0 0 0 0 0 0 0 0 0 0 0 0 0 0
0 0 0 0 0 0 0 0 0 0 0 0 0 0 0 0 0 0 0 0 0 0 0 0 0 0 0 0 0 0 0 0 0 0 0 0 0 0
0 0 0 0 0 0 0 0 0 0 0 0 0 0 0 0 0 0 0 0 0 0 0 0 0 0 0 0 0 0 0 0 0 0 0 0 0 0
0 0 0 0 0 0 0 0 0 0 0 0 0 0 0 0 0 0 0 0 0 0 0 0 0 0 0 0 0 0 0 0 0 0 0 0 0 0
0 0 0 0 0 0 0 0 0 0 0 0 0 0 0 0 0 0 0 0 0 0 0 0 0 0 0 0 0 0 0 0 0 0 0 0 0 0
0 0 0 0 0 0 0 0 0 0 0 0 0 0 0 0 0 0 0 0 0 0 0 0 0 0 0 0 0 0 0 0 0 0 0 0 0 0
0 0 0 0 0 0 0 0 0 0 0 0 0 0 0 0 0 0 0 0 0 0 0 0 0 0 0 0 0 0 0 0 0 0 0 0 0 0
0 0 0 0 0 0 0 0 0 0 0 0 0 0 0 0 0 0 0 0 0 0 0 0 0 0 0 0 0 0 0 0 0 0 0 0 0 0
0 0 0 0 0 0 0 0 0 0 0 0 0 0 0 0 0 0 0 0 0 0 0 0 0 0 0 0 0 0 0 0 0 0 0 0 0 0
0 0 0 0 0 0 0 0 0 0 0 0 0 0 0 0 0 0 0 0 0 0 0 0 0 0 0 0 0 0 0 0 0 0 0 0 0 0
0 0 0 0 0 0 0 0 0 0 0 0 0 0 0 0 0 0 0 0 0 0 0 0 0 0 0 0 0 0 0 0 0 0 0 0 0 0
0 0 0 0 0 0 0 0 0 0 0 0 0 0 0 0 0 0 0 0 0 0 0 0 0 0 0 0 0 0 0 0 0 0 0 0 0 0
0 0 0 0 0 0 0 0 0 0 0 0 0 0 0 0 0 0 0 0 0 0 0 0 0 0 0 0 0 0 0 0 0 0 0 0 0 0
0 0 0 0 0 0 0 0 0 0 0 0 0 0 0 0 0 0 0 0 0 0 0 0 0 0 0 0 0 0 0 0 0 0 0 0 0 0
0 0 0 0 0 0 0 0 0 0 0 0 0 0 0 0 0 0 0 0 0 0 0 0 0 0 0 0 0 0 0 0 0 0 0 0 0 0
Wind_Speed
3 3 3 3 2 2 2 3 2 2 4 4 3 3 3 3 5 3 4 6 7 8 8 9 10 10 12 13 15 17 19 20 20 21 22 22 23 23
3 4 3 3 3 3 2 2 3 3 3 3 3 4 4 4 5 4 5 9 9 10 10 10 11 11 12 13 14 16 18 19 20 21 21 21 21 22
4 4 5 4 3 3 3 2 2 3 4 4 3 3 4 5 5 4 5 5 5 11 12 12 12 12 12 13 15 16 17 18 19 20 21 21 21 22
5 5 5 4 4 4 3 4 4 4 4 5 3 3 4 5 5 5 5 5 5 9 13 13 12 12 13 14 15 15 16 17 18 19 20 21 22 22
6 6 6 5 5 4 4 4 4 4 3 4 4 3 3 3 4 4 5 4 5 7 10 12 12 13 13 14 15 15 16 17 18 19 20 20 21 22
5 5 6 6 6 6 5 6 5 4 4 3 4 3 3 4 2 3 4 3 4 4 6 7 9 11 12 13 14 15 16 17 18 19 19 20 20 20
5 5 6 8 10 8 6 6 5 4 4 4 4 3 3 3 3 2 3 4 4 3 3 3 3 4 5 9 12 14 15 16 17 18 18 19 19 20
6 6 6 8 10 11 11 10 9 7 6 5 4 5 6 5 4 3 3 2 4 3 2 4 3 4 5 5 9 12 14 15 16 17 18 19 19 19
6 6 6 7 7 6 8 10 9 11 12 8 7 8 7 6 5 5 4 4 5 4 2 4 3 5 5 6 11 12 14 15 15 16 17 18 18 19
7 7 7 7 8 8 7 7 7 7 8 7 8 9 9 7 7 6 6 5 5 4 3 4 4 5 5 5 8 11 12 13 14 16 16 17 17 18
8 7 7 8 11 12 7 7 8 7 10 12 12 12 12 12 9 4 4 4 5 4 4 4 4 4 4 4 6 9 10 11 13 14 15 16 16 15
6 7 10 10 11 10 6 6 7 8 6 6 7 8 8 9 11 8 7 6 5 4 4 4 4 3 4 3 3 3 4 7 10 12 13 14 15 10
6 6 6 10 11 10 8 6 10 8 5 5 6 6 5 5 6 7 7 7 7 7 5 3 3 3 3 3 3 3 3 3 3 5 9 13 14 13
7 6 7 10 11 10 7 9 13 9 4 4 5 6 6 6 6 7 8 9 10 10 8 7 5 5 4 4 4 3 3 3 3 4 4 7 11 13
7 10 10 10 9 8 12 14 11 6 5 6 7 8 7 7 6 5 6 7 8 10 9 8 8 6 5 5 4 3 3 3 4 4 4 5 6 6
7 7 10 11 9 10 10 8 7 6 7 8 7 7 5 5 5 5 5 4 4 6 7 8 9 9 7 7 5 5 4 3 3 4 4 4 5 6
4 2 2 3 4 5 5 6 6 5 7 7 7 7 6 6 6 5 5 4 5 5 5 4 6 7 8 6 5 6 5 5 4 4 4 4 5 6
5 3 5 5 6 7 7 6 6 6 7 7 7 7 7 7 7 5 5 5 6 6 6 4 3 3 3 4 7 6 6 5 4 5 4 4 5 5
5 6 6 7 7 7 7 7 7 6 6 6 7 7 7 7 6 6 6 5 6 6 6 4 5 5 6 6 5 8 6 5 4 4 4 4 4 5
6 7 7 7 7 7 7 7 7 6 5 6 6 7 7 6 6 7 6 7 6 6 5 4 5 7 8 7 4 4 8 6 5 5 4 2 1 1
7 8 8 7 7 7 6 6 6 6 6 5 6 6 6 6 7 7 6 8 7 6 6 7 8 9 4 3 3 3 3 4 4 4 5 4 3 2
6 7 7 7 6 6 6 5 5 5 6 6 6 6 5 6 7 7 6 6 6 6 7 6 4 4 4 6 6 5 4 3 4 7 6 2 3 5
6 6 6 6 5 5 5 5 6 5 5 5 5 5 5 5 5 6 6 6 6 6 6 4 3 4 5 5 5 4 6 5 4 3 3 8 3 2
Wind_Direction
249 247 242 251 246 232 210 188 195 270 289 285 298 309 315 304 294 282 274 268 261 259 258 257 254 250 245 239 232 226 221 218 216 214 214 214 214 216
243 246 250 249 254 250 234 213 189 200 250 268 266 283 301 306 303 288 269 269 263 259 257 254 253 250 245 241 236 228 221 217 216 214 213 212 212 213
254 245 251 251 250 254 248 238 225 199 242 271 262 280 294 295 299 292 278 264 262 258 254 252 251 249 246 241 236 232 226 220 217 215 214 212 211 212
248 245 251 253 250 247 242 243 241 224 223 265 279 283 281 281 282 287 283 274 260 262 257 252 251 250 247 243 237 233 228 224 220 217 215 214 212 212
237 236 245 245 250 247 242 242 243 247 224 238 265 266 274 282 295 294 289 285 278 271 264 257 252 250 247 244 239 234 230 226 223 219 217 215 213 212
241 238 241 237 240 243 244 241 239 245 242 243 258 267 268 278 283 289 302 299 294 286 273 266 259 256 251 246 242 237 232 228 224 221 218 216 213 213
250 248 248 249 247 242 240 234 230 231 236 239 254 266 268 275 270 267 280 293 291 273 292 289 276 267 258 250 245 240 234 228 224 222 219 217 215 214
248 256 261 264 264 264 260 251 228 222 226 229 239 243 254 247 247 255 264 292 295 284 293 289 277 270 263 249 244 239 233 228 224 220 219 217 216 215
238 248 262 265 267 261 267 270 260 245 229 221 230 239 244 239 236 253 247 241 246 259 270 276 272 270 264 259 252 242 234 228 225 221 219 217 216 215
236 237 244 260 265 256 256 260 255 254 245 234 229 239 241 237 226 233 241 252 256 255 224 258 267 265 268 260 258 247 237 230 226 223 220 218 217 215
242 240 239 250 261 264 255 252 259 263 261 249 239 242 246 247 239 234 241 243 264 264 220 227 253 261 265 260 256 250 242 233 229 226 222 219 217 213
248 246 244 247 256 265 241 235 250 258 261 270 263 262 257 257 251 227 222 229 240 258 235 212 237 239 275 266 256 256 246 237 233 230 224 217 208 205
241 245 244 245 252 256 241 226 240 251 254 252 258 262 262 256 250 235 222 221 225 236 232 206 232 227 242 283 286 260 243 237 226 231 227 217 205 199
233 238 239 245 249 251 246 244 252 259 253 252 256 258 256 255 251 243 235 230 230 235 231 208 221 225 233 249 263 269 248 235 224 228 221 210 210 207
233 237 240 248 252 255 253 254 255 246 235 243 250 253 247 246 249 252 253 244 242 243 239 218 219 224 220 232 241 240 250 241 221 223 216 209 204 195
236 247 253 257 254 252 258 259 244 231 228 239 247 252 251 244 244 240 247 246 248 258 244 226 221 219 227 229 229 237 226 231 219 214 215 214 208 203
193 226 247 254 256 255 254 252 246 238 236 240 243 250 249 246 246 236 232 232 233 247 257 244 226 221 218 207 220 230 229 230 221 204 206 216 213 207
164 218 239 244 249 254 256 257 248 241 240 239 238 240 243 243 246 239 226 227 236 241 240 235 214 207 222 237 215 220 223 223 214 202 202 213 216 205
190 227 236 243 245 246 248 250 253 248 239 237 240 241 240 240 238 237 231 229 234 236 234 220 204 201 218 234 232 207 207 210 199 201 203 207 216 202
216 230 238 241 241 242 245 246 250 252 246 242 242 242 238 236 235 234 230 227 231 234 235 224 212 209 215 220 215 214 201 197 199 204 194 178 176 142
219 228 235 239 240 240 243 244 244 249 251 247 244 242 237 230 234 233 229 231 228 227 230 233 230 217 205 168 187 211 199 196 198 194 175 168 172 173
227 229 235 238 238 241 243 242 245 248 252 250 249 247 240 230 232 232 227 226 225 225 231 234 217 187 181 196 208 200 184 153 84 78 67 85 175 185
227 229 234 237 236 237 240 242 244 248 248 249 249 247 240 236 234 232 229 227 225 225 224 222 202 191 199 202 199 188 176 171 159 132 51 15 24 96